Location: Kapuskasing
(49.3803°N, 82.4001°W)
Time: 11:16:29
(UTC-04:00)

RS-44 - Pass Details

Date: 18 March 2026
Orbit: 1175 x 1510 km, 82.5° (Epoch: 11 April)

Event Time Altitude Azimuth Distance (km) Brightness Sun altitude
Rises 05:58:27 0° 340° (NNW) 4,442 ? -16.5°
Reaches altitude 10° 06:02:28 10° 322° (NW) 3,522 ? -15.9°
Maximum altitude 06:07:16 17° 287° (WNW) 3,077 ? -15.2°
Enters shadow 06:08:35 16° 276° (W) 3,130 ? -15.0°
